Sedona, AZ

9:38 AM MST on April 26, 2018 (GMT -0700)
Sedona

Weather History for KSEZ - April, 2014

Change the Weather History Date:

Friday, April 18, 2014

  Actual Average Record
Temperature  
Mean Temperature 63 °F -  
Max Temperature 73 °F 72 °F 80 °F (2012)
Min Temperature 53 °F 41 °F 37 °F (2013)
Degree Days  
Heating Degree Days 2    
Growing Degree Days 13 (Base 50)    
Moisture  
Dew Point 30 °F    
Average Humidity 34    
Maximum Humidity 67    
Minimum Humidity 20    
Precipitation  
Precipitation 0.00 in - - ()
Sea Level Pressure  
Sea Level Pressure 30.04 in    
Wind  
Wind Speed 10 mph (ESE)    
Max Wind Speed 29 mph    
Max Gust Speed 40 mph    
Visibility 10 miles    
Events Rain    
Averages and records for this station are not official NWS values.
T = Trace of Precipitation, MM = Missing Value Source: NWS Daily Summary

Daily Weather History Graph

Daily Weather History Graph

Search for Another Location

Airport or City:

Astronomy

Apr. 18, 2014 Rise Set
Actual Time 5:51 AM MST 7:01 PM MST
Civil Twilight 5:25 AM MST 7:28 PM MST
Nautical Twilight 4:54 AM MST 7:59 PM MST
Astronomical Twilight 4:21 AM MST 8:31 PM MST
Moon 10:45 PM MST (4/18) 8:22 AM MST (4/18)
Length of Visible Light 14h 02m
Length of Day
13h 10m
Waning Gibbous, 86% of the Moon is Illuminated
Apr 18
Waning Gibbous
Apr 22
Last Quarter
Apr 28
New
May 6
First Quarter
May 14
Full

Hourly Weather History & Observations

Time (MST) Temp. Dew Point Humidity Pressure Visibility Wind Dir Wind Speed Gust Speed Precip Events Conditions
12:15 AM 60.8 °F 21.2 °F 22% 30.02 in 10.0 mi NE 10.4 mph - N/A   Clear
12:35 AM 60.8 °F 21.2 °F 22% 30.02 in 10.0 mi NE 11.5 mph - N/A   Clear
12:55 AM 60.8 °F 21.2 °F 22% 30.02 in 10.0 mi NE 10.4 mph - N/A   Clear
1:15 AM 59.0 °F 21.2 °F 23% 30.01 in 10.0 mi NE 11.5 mph - N/A   Clear
1:35 AM 59.0 °F 21.2 °F 23% 30.00 in 10.0 mi NE 10.4 mph - N/A   Clear
1:55 AM 59.0 °F 21.2 °F 23% 30.00 in 10.0 mi NE 10.4 mph - N/A   Clear
2:15 AM 59.0 °F 21.2 °F 23% 29.99 in 10.0 mi NE 10.4 mph - N/A   Clear
2:35 AM 59.0 °F 21.2 °F 23% 29.99 in 10.0 mi NE 9.2 mph - N/A   Clear
2:55 AM 59.0 °F 21.2 °F 23% 29.99 in 10.0 mi NE 9.2 mph - N/A   Clear
3:15 AM 60.8 °F 21.2 °F 22% 29.99 in 10.0 mi NE 6.9 mph - N/A   Clear
3:35 AM 59.0 °F 21.2 °F 23% 29.98 in 10.0 mi NNE 10.4 mph - N/A   Clear
3:55 AM 59.0 °F 21.2 °F 23% 29.98 in 10.0 mi NNE 10.4 mph - N/A   Clear
4:15 AM 59.0 °F 21.2 °F 23% 29.98 in 10.0 mi NE 10.4 mph - N/A   Clear
4:35 AM 59.0 °F 21.2 °F 23% 29.98 in 10.0 mi NE 11.5 mph - N/A   Clear
4:55 AM 59.0 °F 21.2 °F 23% 29.98 in 10.0 mi NE 6.9 mph - N/A   Clear
5:15 AM 57.2 °F 21.2 °F 25% 29.99 in 10.0 mi Calm Calm - N/A   Clear
5:35 AM 59.0 °F 21.2 °F 23% 30.00 in 10.0 mi Calm Calm - N/A   Clear
5:55 AM 57.2 °F 21.2 °F 25% 30.00 in 10.0 mi SSE 3.5 mph - N/A   Clear
6:15 AM 55.4 °F 21.2 °F 26% 30.01 in 10.0 mi ENE 4.6 mph - N/A   Clear
6:35 AM 55.4 °F 23.0 °F 29% 30.02 in 10.0 mi NE 5.8 mph - N/A   Clear
6:55 AM 57.2 °F 23.0 °F 27% 30.03 in 10.0 mi NNE 3.5 mph - N/A   Clear
7:15 AM 59.0 °F 23.0 °F 25% 30.04 in 10.0 mi Calm Calm - N/A   Clear
7:35 AM 59.0 °F 23.0 °F 25% 30.05 in 10.0 mi NNE 4.6 mph - N/A   Clear
7:55 AM 59.0 °F 23.0 °F 25% 30.06 in 10.0 mi Calm Calm - N/A   Clear
8:15 AM 60.8 °F 24.8 °F 25% 30.06 in 10.0 mi Calm Calm - N/A   Clear
8:35 AM 60.8 °F 24.8 °F 25% 30.06 in 10.0 mi ESE 3.5 mph - N/A   Clear
8:55 AM 60.8 °F 23.0 °F 23% 30.07 in 10.0 mi SE 3.5 mph - N/A   Clear
9:15 AM 62.6 °F 23.0 °F 22% 30.07 in 10.0 mi SE 3.5 mph - N/A   Clear
9:35 AM 62.6 °F 26.6 °F 26% 30.07 in 10.0 mi SSE 4.6 mph - N/A   Clear
9:55 AM 62.6 °F 26.6 °F 26% 30.07 in 10.0 mi SSE 3.5 mph - N/A   Clear
10:15 AM 66.2 °F 26.6 °F 23% 30.08 in 10.0 mi SSE 6.9 mph - N/A   Clear
10:35 AM 71.6 °F 28.4 °F 20% 30.07 in 10.0 mi SSE 9.2 mph - N/A   Clear
10:55 AM 71.6 °F 28.4 °F 20% 30.07 in 10.0 mi South 11.5 mph 19.6 mph N/A   Clear
11:15 AM 71.6 °F 30.2 °F 22% 30.08 in 10.0 mi South 11.5 mph - N/A   Scattered Clouds
11:35 AM 73.4 °F 32.0 °F 22% 30.07 in 10.0 mi SSE 11.5 mph 20.7 mph N/A   Scattered Clouds
11:55 AM 71.6 °F 32.0 °F 23% 30.06 in 10.0 mi SSE 10.4 mph 19.6 mph N/A   Clear
12:15 PM 71.6 °F 30.2 °F 22% 30.06 in 10.0 mi South 13.8 mph 25.3 mph N/A   Clear
12:35 PM 71.6 °F 28.4 °F 20% 30.06 in 10.0 mi SSW 12.7 mph 23.0 mph N/A   Scattered Clouds
12:55 PM 68.0 °F 24.8 °F 20% 30.06 in 10.0 mi SW 18.4 mph 26.5 mph N/A   Overcast
1:15 PM 68.0 °F 30.2 °F 24% 30.06 in 10.0 mi SW 20.7 mph 29.9 mph N/A   Overcast
1:35 PM 66.2 °F 30.2 °F 26% 30.06 in 10.0 mi SW 17.3 mph 27.6 mph N/A   Overcast
1:55 PM 66.2 °F 28.4 °F 24% 30.06 in 10.0 mi South 24.2 mph 38.0 mph N/A   Overcast
2:15 PM 62.6 °F 32.0 °F 32% 30.07 in 10.0 mi South 21.9 mph 40.3 mph N/A   Overcast
2:35 PM 62.6 °F 33.8 °F 34% 30.07 in 10.0 mi South 26.5 mph 32.2 mph N/A   Overcast
2:55 PM 62.6 °F 33.8 °F 34% 30.06 in 10.0 mi South 11.5 mph 25.3 mph N/A   Overcast
3:15 PM 62.6 °F 32.0 °F 32% 30.05 in 10.0 mi SSE 17.3 mph 26.5 mph N/A   Overcast
3:35 PM 62.6 °F 33.8 °F 34% 30.05 in 10.0 mi South 20.7 mph 29.9 mph N/A   Overcast
3:55 PM 62.6 °F 33.8 °F 34% 30.04 in 10.0 mi SSE 25.3 mph 34.5 mph N/A   Overcast
4:15 PM 62.6 °F 33.8 °F 34% 30.03 in 10.0 mi SSE 28.8 mph 38.0 mph N/A   Overcast
4:35 PM 60.8 °F 37.4 °F 42% 30.05 in 10.0 mi SE 20.7 mph 34.5 mph N/A Rain Light Rain
4:55 PM 60.8 °F 37.4 °F 42% 30.06 in 10.0 mi SSE 12.7 mph 20.7 mph N/A   Overcast
5:15 PM 60.8 °F 37.4 °F 42% 30.06 in 10.0 mi South 16.1 mph 23.0 mph N/A Rain Light Rain
5:35 PM 59.0 °F 39.2 °F 48% 30.06 in 10.0 mi South 6.9 mph 18.4 mph N/A   Light Drizzle
5:55 PM 59.0 °F 37.4 °F 45% 30.06 in 10.0 mi SSE 6.9 mph - N/A   Overcast
6:15 PM 59.0 °F 37.4 °F 45% 30.05 in 10.0 mi South 9.2 mph - N/A   Overcast
6:35 PM 59.0 °F 37.4 °F 45% 30.05 in 10.0 mi South 4.6 mph - N/A   Light Drizzle
6:55 PM 57.2 °F 41.0 °F 55% 30.05 in 10.0 mi SE 5.8 mph - N/A   Light Drizzle
7:15 PM 55.4 °F 41.0 °F 58% 30.05 in 10.0 mi ESE 3.5 mph - N/A   Light Drizzle
7:35 PM 55.4 °F 39.2 °F 54% 30.05 in 10.0 mi Calm Calm - N/A   Overcast
7:55 PM 55.4 °F 41.0 °F 58% 30.06 in 10.0 mi NE 5.8 mph - N/A Rain Light Rain
8:15 PM 53.6 °F 42.8 °F 67% 30.06 in 10.0 mi NNE 10.4 mph - N/A   Overcast
8:35 PM 55.4 °F 42.8 °F 63% 30.06 in 10.0 mi NE 10.4 mph - N/A   Overcast
8:55 PM 55.4 °F 42.8 °F 63% 30.06 in 10.0 mi ENE 10.4 mph - N/A   Mostly Cloudy
9:15 PM 53.6 °F 42.8 °F 67% 30.06 in 10.0 mi ENE 11.5 mph - N/A   Scattered Clouds
9:35 PM 55.4 °F 41.0 °F 58% 30.06 in 10.0 mi ENE 11.5 mph - N/A   Clear
9:55 PM 55.4 °F 41.0 °F 58% 30.06 in 10.0 mi NE 10.4 mph - N/A   Clear
10:15 PM 55.4 °F 41.0 °F 58% 30.06 in 10.0 mi ENE 9.2 mph - N/A   Clear
10:35 PM 55.4 °F 39.2 °F 54% 30.06 in 10.0 mi ENE 8.1 mph - N/A   Clear
10:55 PM 55.4 °F 39.2 °F 54% 30.06 in 10.0 mi ENE 8.1 mph - N/A   Clear
11:15 PM 55.4 °F 37.4 °F 51% 30.06 in 10.0 mi ENE 6.9 mph - N/A   Clear
11:35 PM 55.4 °F 37.4 °F 51% 30.06 in 10.0 mi ENE 5.8 mph - N/A   Clear
11:55 PM 55.4 °F 37.4 °F 51% 30.06 in 10.0 mi ENE 5.8 mph - N/A   Scattered Clouds